Weather in Rzhevka

Russia / Belgorod Oblast     50°26′15″N   36°59′14″E
temp.,
°C
wind,
m/s
gust,
m/s
humid.,
%
clouds,
%
prec.,
mm/h
press.,
hPa
HPBL,
m
28 september, tue
tue2800:00+7n36896 0.0 1021133
03:00+8nnw3686100 0.1 1021244
06:00+8n4889100 0.4 1021325
09:00+10nne4681100 0.7 1022469
12:00+11nne4569100 0.1 1023968
15:00+12ne5563100 0.2 10241075
18:00+10ne6972100 0.1 1026580
21:00+8ne5977100 0.1 1028627
29 september, wed
wed2900:00+8ene587592 0.0 1029680
03:00+7ne5877100 0.0 1030645
06:00+7ne5876100 0.0 1031539
09:00+8ene68705 0.0 1032680
12:00+11ene56476 0.0 10321335
15:00+12ne56384 0.0 10311537
18:00+10ne47470 0.0 1031160
21:00+7ne38580 0.0 1033167
30 september, thu
thu3000:00+6ne34635 0.0 103372
03:00+5ne33665 0.0 103343
06:00+4ne33695 0.0 103445
09:00+8ne35550 0.0 1034316
12:00+12ene34410 0.0 10341137
15:00+13ene34384 0.0 10331447
18:00+10ne33505 0.0 103234
21:00+8ene35615 0.0 103387
1 october, fri
fri100:00+7ene23665 0.0 103441
03:00+6ene22725 0.0 103529
06:00+5ene22755 0.0 103523
09:00+9e34608 0.0 1035294
12:00+13e34455 0.0 10351186
15:00+14e44415 0.0 10341561
18:00+11ene33545 0.0 103447
21:00+9e35635 0.0 103579
2 october, sat
sat200:00+8e34695 0.0 103567
03:00+7e33745 0.0 103548
06:00+6e23787 0.0 103436
09:00+10e346294 0.0 1034269
12:00+11e3460100 0.0 1034449
15:00+12e4556100 0.0 1033721
18:00+11ene366763 0.0 1032221
21:00+9e367683 0.0 1032173